Simultaneous Nadir Overpasses (SNOs) Predictions

Prediction of SNOs between NOAA-19 and TERRA Satellite Orbit:

Table of predicted SNOs for the next 14.0 days since TLE Epoch: 6/15/2012
Index Date (NOAA-19) Time (NOAA-19) NOAA-19 Lat,Lon Date (TERRA) Time (TERRA) TERRA Lat,Lon Distance(km) Time Diff (sec)
1 06/17/2012 08:54:15 69.01, 45.73 06/17/2012 08:54:47 69.01, 45.71 0.83 32
2 06/17/2012 09:45:18 -68.88,-146.86 06/17/2012 09:44:18 -68.85,-146.87 3.36 60
3 06/19/2012 12:48:17 -70.08, 165.73 06/19/2012 12:49:23 -70.00, 168.31 98.39 66
4 06/19/2012 13:38:55 68.96, -25.37 06/19/2012 13:39:07 68.96, -25.44 2.91 12
5 06/19/2012 14:29:53 -68.54, 142.43 06/19/2012 14:28:41 -68.63, 141.78 28.03 72
6 06/21/2012 17:32:44 -69.34, 95.68 06/21/2012 17:33:56 -69.23, 96.18 23.24 72
7 06/21/2012 18:23:36 68.97, -96.54 06/21/2012 18:23:26 68.95, -96.53 2.09 10
8 06/23/2012 22:17:20 -69.07, 24.89 06/23/2012 22:18:17 -69.09, 24.93 2.90 57
9 06/23/2012 23:08:16 68.93,-167.66 06/23/2012 23:07:45 68.93,-167.64 0.82 31
10 06/26/2012 03:02:00 -69.03, -46.22 06/26/2012 03:02:37 -69.00, -46.26 3.28 37
11 06/26/2012 03:52:56 68.90, 121.22 06/26/2012 03:52:04 68.89, 121.24 1.16 52
12 06/28/2012 07:46:40 -69.00,-117.34 06/28/2012 07:46:55 -69.01,-117.33 1.91 15
13 06/28/2012 08:37:35 68.82, 50.16 06/28/2012 08:36:23 68.84, 50.10 3.43 72




NCC Satellite Simultaneous Nadir Overpasses (SNOs) Prediction Service
